Regional Weather Roundup
Issued by NWS

Home | Current Version | Previous Version | Graphics & Text | Print | Product List | Glossary On
Versions: 1 2 3 4 5 6 7 8 9 10 11 12 13 14 15 16 17 18 19 20 21 22 23 24 25 26 27 28 29 30 31 32 33 34 35 36 37 38 39 40 41 42 43 44 45 46 47 48 49 50
000
ASUS43 KDTX 272010
RWRMI
MICHIGAN HOURLY REGIONAL WEATHER ROUNDUP
NATIONAL WEATHER SERVICE DETROIT/PONTIAC MI
ISSUED BY NATIONAL WEATHER SERVICE GRAND RAPIDS MI
400 PM EDT SAT MAY 27 2017

NOTE: "FAIR" INDICATES FEW OR NO CLOUDS BELOW 12,000 FEET WITH NO
SIGNIFICANT WEATHER AND/OR OBSTRUCTION TO VISIBILITY.

MIZ047>049-052>055-059>063-066>070-074>076-081>083-272100-
SOUTHEAST LOWER MICHIGAN

CITY           SKY/WX    TMP DP  RH WIND       PRES   REMARKS
ADRIAN         PTSUNNY   72  55  55 E5        29.91R
ALMA           PTSUNNY   75  53  46 S9        29.90S
ANN ARBOR      CLOUDY    72  58  61 S3        29.90R
BAD AXE        MOSUNNY   71  54  55 CALM      29.91S
DETROIT CITY   SUNNY     73  56  54 SE9       29.90S
DETROIT        PTSUNNY   73  58  59 S6        29.91S
FLINT          CLOUDY    74  53  48 CALM      29.90S
GROSSE ILE     SUNNY     67  58  70 S9        29.90F
HILLSDALE      CLOUDY    68  59  73 SE3       29.91R
HOWELL         CLOUDY    73  50  44 E5        29.91R

CITY           SKY/WX    TMP DP  RH WIND       PRES   REMARKS
JACKSON        CLOUDY    72  57  59 NE5       29.90S
LANSING        CLOUDY    75  53  46 CALM      29.90S
MASON          CLOUDY    72  56  56 E3        29.91R
MONROE         MOSUNNY   70  54  56 SE9       29.90S
MT. CLEMENS    MOSUNNY   72  57  60 E6        29.89F
PONTIAC        PTSUNNY   72  54  53 CALM      29.89S
PORT HOPE        N/A     57  53  86 E12       29.90F
PORT HURON     PTSUNNY   72  54  53 CALM      29.90S
TRI CITIES     PTSUNNY   78  56  46 VRB3      29.90R
YPSILANTI      CLOUDY    74  57  55 MISG      29.91R
$$
MIZ043>046-050>051-056>058-064>065-071>073-077>080-272100-
SOUTHWEST LOWER MICHIGAN

CITY           SKY/WX    TMP DP  RH WIND       PRES   REMARKS
BATTLE CREEK   CLOUDY    73  58  59 CALM      29.90F
BENTON HARBOR  SUNNY     68  56  65 VRB7      29.91R
BIG RAPIDS     CLOUDY    74  50  42 CALM      29.88F
COLDWATER      CLOUDY    71  60  67 E3        29.91R
HOLLAND        SUNNY     73  54  51 NW12      29.91R
GRAND RAPIDS   PTSUNNY   75  55  49 W3        29.89R
KALAMAZOO      CLOUDY    72  56  57 S6        29.90S
MARSHALL       CLOUDY    72  57  59 SE5       29.90S
MOUNT PLEASANT MOSUNNY   76  53  43 W7        29.88F
MUSKEGON       MOSUNNY   71  49  45 W13       29.90S
STURGIS        CLOUDY    72  60  65 S3        29.89S
$$
MIZ016>042-272100-
NORTHERN LOWER MICHIGAN

CITY           SKY/WX    TMP DP  RH WIND       PRES   REMARKS
ALPENA         SUNNY     72  53  51 E14       29.90S
BEAVER ISLAND  SUNNY     69  54  60 W7        29.89F
BELLAIRE       SUNNY     77  49  37 CALM      29.86F
CADILLAC       PTSUNNY   75  52  43 S6        29.89S
CHARLEVOIX     SUNNY     64  54  71 W12       29.92S
GAYLORD        CLOUDY    74  49  41 SW6       29.88S
HOUGHTON LAKE  CLOUDY    72  53  51 SW7       29.90S
MANISTEE       SUNNY     66  53  63 W10       29.90S
OSCODA         SUNNY     71  52  49 S7        29.90S
PELLSTON       PTSUNNY   73  52  47 N9        29.88R
TRAVERSE CITY  PTSUNNY   75  55  49 NW13G18   29.85S
LUDINGTON      SUNNY     61  53  75 W10       29.91R
$$
MIZ007>008-015-272100-
EASTERN UPPER MICHIGAN

CITY           SKY/WX    TMP DP  RH WIND       PRES   REMARKS
KINROSS        MOSUNNY   74  54  49 SW13G20   29.87S
MACKINAC ISLAN SUNNY     67  54  62 E3        29.88F
NEWBERRY       SUNNY     71  54  54 SW12G20   29.86F
S. S. MARIE    MOSUNNY   76  53  44 SW12      29.85S
$$
MIZ004>006-011>014-085-272100-
CENTRAL UPPER MICHIGAN

CITY           SKY/WX    TMP DP  RH WIND       PRES   REMARKS
MANISTIQUE     SUNNY     58  51  77 S10       29.87F
ESCANABA       CLOUDY    63  53  70 S10       29.85S
SAWYER-GWINN   PTSUNNY   66  59  77 S7        29.82F
$$
MIZ001>003-009>011-084-272100-
WESTERN UPPER MICHIGAN

CITY           SKY/WX    TMP DP  RH WIND       PRES   REMARKS
IRON MOUNTAIN  PTSUNNY   79  46  31 SW13G18   29.80F
HOUGHTON       SUNNY     69  47  45 NW14      29.82R
COPPER HARBOR    N/A     51  47  86 N13       29.81S
IRONWOOD       PTSUNNY   69  47  45 NW12G17   29.85S
$$

ABBREVIATIONS USED IN REMARKS
   TC - TEMPERATURE IN CELSIUS
  WCI - WIND CHILL INDEX
   HX - HEAT INDEX
  VSB - VISIBILITY





USA.gov is the U.S. government's official web portal to all federal, state and local government web resources and services.